Year,Month,Day,Hour,Minute,Value (Times are PST for temperature in C)
2008,07,19,00,00,10.40
2008,07,19,00,01,10.40
2008,07,19,00,02,10.40
2008,07,19,00,03,10.40
2008,07,19,00,04,10.40
2008,07,19,00,05,10.40
2008,07,19,00,06,10.40
2008,07,19,00,07,10.40
2008,07,19,00,08,10.40
2008,07,19,00,09,10.30
2008,07,19,00,10,10.30
2008,07,19,00,11,10.30
2008,07,19,00,12,10.30
2008,07,19,00,13,10.30
2008,07,19,00,14,10.30
2008,07,19,00,15,10.30
2008,07,19,00,16,10.30
2008,07,19,00,17,10.30
2008,07,19,00,18,10.30
2008,07,19,00,19,10.20
2008,07,19,00,20,10.20
2008,07,19,00,21,10.20
2008,07,19,00,22,10.20
2008,07,19,00,23,10.20
2008,07,19,00,24,10.20
2008,07,19,00,25,10.20
2008,07,19,00,26,10.20
2008,07,19,00,27,10.20
2008,07,19,00,28,10.20
2008,07,19,00,29,10.20
2008,07,19,00,30,10.20
2008,07,19,00,31,10.20
2008,07,19,00,32,10.20
2008,07,19,00,33,10.20
2008,07,19,00,34,10.20
2008,07,19,00,35,10.10
2008,07,19,00,36,10.20
2008,07,19,00,37,10.10
2008,07,19,00,38,10.10
2008,07,19,00,39,10.10
2008,07,19,00,40,10.10
2008,07,19,00,41,10.10
2008,07,19,00,42,10.10
2008,07,19,00,43,10.10
2008,07,19,00,44,10.10
2008,07,19,00,45,10.10
2008,07,19,00,46,10.10
2008,07,19,00,47,10.10
2008,07,19,00,48,10.10
2008,07,19,00,49,10.10
2008,07,19,00,50,10.10
2008,07,19,00,51,10.10
2008,07,19,00,52,10.00
2008,07,19,00,53,10.00
2008,07,19,00,54,10.00
2008,07,19,00,55,10.00
2008,07,19,00,56,10.00
2008,07,19,00,57,9.90
2008,07,19,00,58,9.90
2008,07,19,00,59,9.90
2008,07,19,01,00,9.90
2008,07,19,01,01,9.90
2008,07,19,01,02,9.90
2008,07,19,01,03,9.90
2008,07,19,01,04,9.90
2008,07,19,01,05,9.90
2008,07,19,01,06,9.80
2008,07,19,01,07,9.80
2008,07,19,01,08,9.80
2008,07,19,01,09,9.80
2008,07,19,01,10,9.80
2008,07,19,01,11,9.80
2008,07,19,01,12,9.80
2008,07,19,01,13,9.80
2008,07,19,01,14,9.80
2008,07,19,01,15,9.70
2008,07,19,01,16,9.70
2008,07,19,01,17,9.70
2008,07,19,01,18,9.70
2008,07,19,01,19,9.70
2008,07,19,01,20,9.70
2008,07,19,01,21,9.70
2008,07,19,01,22,9.70
2008,07,19,01,23,9.70
2008,07,19,01,24,9.70
2008,07,19,01,25,9.70
2008,07,19,01,26,9.70
2008,07,19,01,27,9.70
2008,07,19,01,28,9.70
2008,07,19,01,29,9.70
2008,07,19,01,30,9.70
2008,07,19,01,31,9.70
2008,07,19,01,32,9.70
2008,07,19,01,33,9.60
2008,07,19,01,34,9.60
2008,07,19,01,35,9.60
2008,07,19,01,36,9.60
2008,07,19,01,37,9.60
2008,07,19,01,38,9.60
2008,07,19,01,39,9.60
2008,07,19,01,40,9.60
2008,07,19,01,41,9.60
2008,07,19,01,42,9.60
2008,07,19,01,43,9.60
2008,07,19,01,44,9.60
2008,07,19,01,45,9.60
2008,07,19,01,46,9.60
2008,07,19,01,47,9.50
2008,07,19,01,48,9.50
2008,07,19,01,49,9.50
2008,07,19,01,50,9.50
2008,07,19,01,51,9.50
2008,07,19,01,52,9.40
2008,07,19,01,53,9.40
2008,07,19,01,54,9.40
2008,07,19,01,55,9.40
2008,07,19,01,56,9.40
2008,07,19,01,57,9.40
2008,07,19,01,58,9.40
2008,07,19,01,59,9.40
2008,07,19,02,00,9.40
2008,07,19,02,01,9.40
2008,07,19,02,02,9.40
2008,07,19,02,03,9.40
2008,07,19,02,04,9.40
2008,07,19,02,05,9.30
2008,07,19,02,06,9.30
2008,07,19,02,07,9.30
2008,07,19,02,08,9.30
2008,07,19,02,09,9.30
2008,07,19,02,10,9.30
2008,07,19,02,11,9.30
2008,07,19,02,12,9.30
2008,07,19,02,13,9.30
2008,07,19,02,14,9.30
2008,07,19,02,15,9.30
2008,07,19,02,16,9.30
2008,07,19,02,17,9.30
2008,07,19,02,18,9.30
2008,07,19,02,19,9.30
2008,07,19,02,20,9.30
2008,07,19,02,21,9.30
2008,07,19,02,22,9.30
2008,07,19,02,23,9.30
2008,07,19,02,24,9.30
2008,07,19,02,25,9.30
2008,07,19,02,26,9.30
2008,07,19,02,27,9.30
2008,07,19,02,28,9.30
2008,07,19,02,29,9.20
2008,07,19,02,30,9.20
2008,07,19,02,31,9.20
2008,07,19,02,32,9.20
2008,07,19,02,33,9.20
2008,07,19,02,34,9.20
2008,07,19,02,35,9.20
2008,07,19,02,36,9.20
2008,07,19,02,37,9.20
2008,07,19,02,38,9.20
2008,07,19,02,39,9.10
2008,07,19,02,40,9.10
2008,07,19,02,41,9.10
2008,07,19,02,42,9.10
2008,07,19,02,43,9.10
2008,07,19,02,44,9.10
2008,07,19,02,45,9.10
2008,07,19,02,46,9.10
2008,07,19,02,47,9.10
2008,07,19,02,48,9.00
2008,07,19,02,49,9.10
2008,07,19,02,50,9.00
2008,07,19,02,51,9.00
2008,07,19,02,52,9.00
2008,07,19,02,53,9.00
2008,07,19,02,54,9.00
2008,07,19,02,55,9.00
2008,07,19,02,56,9.00
2008,07,19,02,57,9.00
2008,07,19,02,58,8.90
2008,07,19,02,59,8.90
2008,07,19,03,00,8.90
2008,07,19,03,01,8.90
2008,07,19,03,02,8.90
2008,07,19,03,03,8.90
2008,07,19,03,04,8.90
2008,07,19,03,05,8.90
2008,07,19,03,06,8.90
2008,07,19,03,07,8.90
2008,07,19,03,08,8.90
2008,07,19,03,09,8.90
2008,07,19,03,10,8.90
2008,07,19,03,11,8.90
2008,07,19,03,12,8.90
2008,07,19,03,13,8.90
2008,07,19,03,14,8.90
2008,07,19,03,15,8.90
2008,07,19,03,16,8.80
2008,07,19,03,17,8.80
2008,07,19,03,18,8.80
2008,07,19,03,19,8.80
2008,07,19,03,20,8.80
2008,07,19,03,21,8.80
2008,07,19,03,22,8.80
2008,07,19,03,23,8.80
2008,07,19,03,24,8.80
2008,07,19,03,25,8.80
2008,07,19,03,26,8.80
2008,07,19,03,27,8.80
2008,07,19,03,28,8.80
2008,07,19,03,29,8.80
2008,07,19,03,30,8.80
2008,07,19,03,31,8.80
2008,07,19,03,32,8.80
2008,07,19,03,33,8.80
2008,07,19,03,34,8.80
2008,07,19,03,35,8.80
2008,07,19,03,36,8.80
2008,07,19,03,37,8.80
2008,07,19,03,38,8.80
2008,07,19,03,39,8.80
2008,07,19,03,40,8.80
2008,07,19,03,41,8.70
2008,07,19,03,42,8.70
2008,07,19,03,43,8.70
2008,07,19,03,44,8.70
2008,07,19,03,45,8.70
2008,07,19,03,46,8.70
2008,07,19,03,47,8.70
2008,07,19,03,48,8.70
2008,07,19,03,49,8.70
2008,07,19,03,50,8.70
2008,07,19,03,51,8.70
2008,07,19,03,52,8.70
2008,07,19,03,53,8.60
2008,07,19,03,54,8.60
2008,07,19,03,55,8.60
2008,07,19,03,56,8.60
2008,07,19,03,57,8.60
2008,07,19,03,58,8.60
2008,07,19,03,59,8.60
2008,07,19,04,00,8.60
2008,07,19,04,01,8.60
2008,07,19,04,02,8.60
2008,07,19,04,03,8.60
2008,07,19,04,04,8.60
2008,07,19,04,05,8.60
2008,07,19,04,06,8.60
2008,07,19,04,07,8.60
2008,07,19,04,08,8.60
2008,07,19,04,09,8.60
2008,07,19,04,10,8.60
2008,07,19,04,11,8.60
2008,07,19,04,12,8.60
2008,07,19,04,13,8.60
2008,07,19,04,14,8.60
2008,07,19,04,15,8.60
2008,07,19,04,16,8.60
2008,07,19,04,17,8.60
2008,07,19,04,18,8.60
2008,07,19,04,19,8.60
2008,07,19,04,20,8.50
2008,07,19,04,21,8.50
2008,07,19,04,22,8.50
2008,07,19,04,23,8.50
2008,07,19,04,24,8.50
2008,07,19,04,25,8.50
2008,07,19,04,26,8.40
2008,07,19,04,27,8.40
2008,07,19,04,28,8.40
2008,07,19,04,29,8.40
2008,07,19,04,30,8.40
2008,07,19,04,31,8.40
2008,07,19,04,32,8.40
2008,07,19,04,33,8.40
2008,07,19,04,34,8.40
2008,07,19,04,35,8.40
2008,07,19,04,36,8.40
2008,07,19,04,37,8.40
2008,07,19,04,38,8.40
2008,07,19,04,39,8.40
2008,07,19,04,40,8.40
2008,07,19,04,41,8.40
2008,07,19,04,42,8.40
2008,07,19,04,43,8.40
2008,07,19,04,44,8.40
2008,07,19,04,45,8.40
2008,07,19,04,46,8.30
2008,07,19,04,47,8.30
2008,07,19,04,48,8.30
2008,07,19,04,49,8.30
2008,07,19,04,50,8.30
2008,07,19,04,51,8.30
2008,07,19,04,52,8.30
2008,07,19,04,53,8.30
2008,07,19,04,54,8.30
2008,07,19,04,55,8.30
2008,07,19,04,56,8.30
2008,07,19,04,57,8.30
2008,07,19,04,58,8.30
2008,07,19,04,59,8.30
2008,07,19,05,00,8.30
2008,07,19,05,01,8.30
2008,07,19,05,02,8.30
2008,07,19,05,03,8.30
2008,07,19,05,04,8.30
2008,07,19,05,05,8.30
2008,07,19,05,06,8.30
2008,07,19,05,07,8.30
2008,07,19,05,08,8.30
2008,07,19,05,09,8.30
2008,07,19,05,10,8.30
2008,07,19,05,11,8.30
2008,07,19,05,12,8.30
2008,07,19,05,13,8.30
2008,07,19,05,14,8.30
2008,07,19,05,15,8.30
2008,07,19,05,16,8.30
2008,07,19,05,17,8.30
2008,07,19,05,18,8.30
2008,07,19,05,19,8.30
2008,07,19,05,20,8.30
2008,07,19,05,21,8.30
2008,07,19,05,22,8.30
2008,07,19,05,23,8.30
2008,07,19,05,24,8.30
2008,07,19,05,25,8.20
2008,07,19,05,26,8.20
2008,07,19,05,27,8.20
2008,07,19,05,28,8.20
2008,07,19,05,29,8.20
2008,07,19,05,30,8.20
2008,07,19,05,31,8.20
2008,07,19,05,32,8.20
2008,07,19,05,33,8.20
2008,07,19,05,34,8.20
2008,07,19,05,35,8.20
2008,07,19,05,36,8.20
2008,07,19,05,37,8.20
2008,07,19,05,38,8.20
2008,07,19,05,39,8.20
2008,07,19,05,40,8.20
2008,07,19,05,41,8.20
2008,07,19,05,42,8.20
2008,07,19,05,43,8.20
2008,07,19,05,44,8.20
2008,07,19,05,45,8.20
2008,07,19,05,46,8.20
2008,07,19,05,47,8.20
2008,07,19,05,48,8.20
2008,07,19,05,49,8.20
2008,07,19,05,50,8.20
2008,07,19,05,51,8.20
2008,07,19,05,52,8.20
2008,07,19,05,53,8.20
2008,07,19,05,54,8.20
2008,07,19,05,55,8.20
2008,07,19,05,56,8.20
2008,07,19,05,57,8.20
2008,07,19,05,58,8.20
2008,07,19,05,59,8.20
2008,07,19,06,00,8.30
2008,07,19,06,01,8.30
2008,07,19,06,02,8.30
2008,07,19,06,03,8.30
2008,07,19,06,04,8.30
2008,07,19,06,05,8.30
2008,07,19,06,06,8.30
2008,07,19,06,07,8.30
2008,07,19,06,08,8.30
2008,07,19,06,09,8.30
2008,07,19,06,10,8.30
2008,07,19,06,11,8.30
2008,07,19,06,12,8.30
2008,07,19,06,13,8.30
2008,07,19,06,14,8.30
2008,07,19,06,15,8.30
2008,07,19,06,16,8.30
2008,07,19,06,17,8.30
2008,07,19,06,18,8.30
2008,07,19,06,19,8.30
2008,07,19,06,20,8.30
2008,07,19,06,21,8.30
2008,07,19,06,22,8.30
2008,07,19,06,23,8.30
2008,07,19,06,24,8.30
2008,07,19,06,25,8.30
2008,07,19,06,26,8.30
2008,07,19,06,27,8.40
2008,07,19,06,28,8.40
2008,07,19,06,29,8.40
2008,07,19,06,30,8.40
2008,07,19,06,31,8.40
2008,07,19,06,32,8.40
2008,07,19,06,33,8.40
2008,07,19,06,34,8.40
2008,07,19,06,35,8.50
2008,07,19,06,36,8.50
2008,07,19,06,37,8.50
2008,07,19,06,38,8.50
2008,07,19,06,39,8.60
2008,07,19,06,40,8.60
2008,07,19,06,41,8.60
2008,07,19,06,42,8.60
2008,07,19,06,43,8.60
2008,07,19,06,44,8.70
2008,07,19,06,45,8.70
2008,07,19,06,46,8.70
2008,07,19,06,47,8.70
2008,07,19,06,48,8.80
2008,07,19,06,49,8.80
2008,07,19,06,50,8.90
2008,07,19,06,51,8.90
2008,07,19,06,52,8.90
2008,07,19,06,53,8.90
2008,07,19,06,54,8.90
2008,07,19,06,55,9.00
2008,07,19,06,56,9.00
2008,07,19,06,57,9.00
2008,07,19,06,58,9.00
2008,07,19,06,59,9.00
2008,07,19,07,00,9.10
2008,07,19,07,01,9.10
2008,07,19,07,02,9.10
2008,07,19,07,03,9.10
2008,07,19,07,04,9.10
2008,07,19,07,05,9.20
2008,07,19,07,06,9.20
2008,07,19,07,07,9.20
2008,07,19,07,08,9.20
2008,07,19,07,09,9.30
2008,07,19,07,10,9.30
2008,07,19,07,11,9.40
2008,07,19,07,12,9.40
2008,07,19,07,13,9.50
2008,07,19,07,14,9.50
2008,07,19,07,15,9.60
2008,07,19,07,16,9.60
2008,07,19,07,17,9.70
2008,07,19,07,18,9.70
2008,07,19,07,19,9.80
2008,07,19,07,20,9.80
2008,07,19,07,21,9.90
2008,07,19,07,22,9.90
2008,07,19,07,23,9.90
2008,07,19,07,24,10.00
2008,07,19,07,25,10.10
2008,07,19,07,26,10.10
2008,07,19,07,27,10.20
2008,07,19,07,28,10.30
2008,07,19,07,29,10.40
2008,07,19,07,30,10.50
2008,07,19,07,31,10.60
2008,07,19,07,32,10.80
2008,07,19,07,33,10.90
2008,07,19,07,34,11.10
2008,07,19,07,35,11.20
2008,07,19,07,36,11.40
2008,07,19,07,37,11.50
2008,07,19,07,38,11.70
2008,07,19,07,39,11.80
2008,07,19,07,40,11.90
2008,07,19,07,41,12.00
2008,07,19,07,42,12.20
2008,07,19,07,43,12.30
2008,07,19,07,44,12.40
2008,07,19,07,45,12.50
2008,07,19,07,46,12.70
2008,07,19,07,47,12.80
2008,07,19,07,48,12.90
2008,07,19,07,49,13.00
2008,07,19,07,50,13.10
2008,07,19,07,51,13.20
2008,07,19,07,52,13.30
2008,07,19,07,53,13.50
2008,07,19,07,54,13.60
2008,07,19,07,55,13.70
2008,07,19,07,56,13.80
2008,07,19,07,57,14.00
2008,07,19,07,58,14.10
2008,07,19,07,59,14.20
2008,07,19,08,00,14.30
2008,07,19,08,01,14.50
2008,07,19,08,02,14.70
2008,07,19,08,03,14.90
2008,07,19,08,04,15.00
2008,07,19,08,05,15.10
2008,07,19,08,06,15.30
2008,07,19,08,07,15.50
2008,07,19,08,08,15.70
2008,07,19,08,09,15.80
2008,07,19,08,10,15.90
2008,07,19,08,11,16.10
2008,07,19,08,12,16.30
2008,07,19,08,13,16.40
2008,07,19,08,14,16.50
2008,07,19,08,15,16.60
2008,07,19,08,16,16.70
2008,07,19,08,17,16.80
2008,07,19,08,18,16.90
2008,07,19,08,19,17.00
2008,07,19,08,20,17.00
2008,07,19,08,21,17.10
2008,07,19,08,22,17.10
2008,07,19,08,23,17.10
2008,07,19,08,24,17.20
2008,07,19,08,25,17.10
2008,07,19,08,26,17.20
2008,07,19,08,27,17.20
2008,07,19,08,28,17.20
2008,07,19,08,29,17.20
2008,07,19,08,30,17.20
2008,07,19,08,31,17.20
2008,07,19,08,32,17.20
2008,07,19,08,33,17.20
2008,07,19,08,34,17.20
2008,07,19,08,35,17.20
2008,07,19,08,36,17.20
2008,07,19,08,37,17.20
2008,07,19,08,38,17.30
2008,07,19,08,39,17.30
2008,07,19,08,40,17.30
2008,07,19,08,41,17.30
2008,07,19,08,42,17.30
2008,07,19,08,43,17.30
2008,07,19,08,44,17.30
2008,07,19,08,45,17.30
2008,07,19,08,46,17.30
2008,07,19,08,47,17.30
2008,07,19,08,48,17.40
2008,07,19,08,49,17.40
2008,07,19,08,50,17.40
2008,07,19,08,51,17.30
2008,07,19,08,52,17.30
2008,07,19,08,53,17.30
2008,07,19,08,54,17.30
2008,07,19,08,55,17.30
2008,07,19,08,56,17.30
2008,07,19,08,57,17.30
2008,07,19,08,58,17.30
2008,07,19,08,59,17.30
2008,07,19,09,00,17.40
2008,07,19,09,01,17.50
2008,07,19,09,02,17.50
2008,07,19,09,03,17.60
2008,07,19,09,04,17.70
2008,07,19,09,05,17.80
2008,07,19,09,06,17.80
2008,07,19,09,07,17.90
2008,07,19,09,08,17.90
2008,07,19,09,09,17.90
2008,07,19,09,10,17.90
2008,07,19,09,11,18.00
2008,07,19,09,12,18.10
2008,07,19,09,13,18.20
2008,07,19,09,14,18.20
2008,07,19,09,15,18.20
2008,07,19,09,16,18.10
2008,07,19,09,17,17.90
2008,07,19,09,18,17.80
2008,07,19,09,19,17.60
2008,07,19,09,20,17.60
2008,07,19,09,21,17.70
2008,07,19,09,22,17.70
2008,07,19,09,23,17.70
2008,07,19,09,24,17.80
2008,07,19,09,25,17.90
2008,07,19,09,26,18.00
2008,07,19,09,27,18.10
2008,07,19,09,28,18.20
2008,07,19,09,29,18.20
2008,07,19,09,30,18.30
2008,07,19,09,31,18.40
2008,07,19,09,32,18.40
2008,07,19,09,33,18.30
2008,07,19,09,34,18.30
2008,07,19,09,35,18.30
2008,07,19,09,36,18.30
2008,07,19,09,37,18.40
2008,07,19,09,38,18.50
2008,07,19,09,39,18.50
2008,07,19,09,40,18.40
2008,07,19,09,41,18.30
2008,07,19,09,42,18.30
2008,07,19,09,43,18.40
2008,07,19,09,44,18.40
2008,07,19,09,45,18.40
2008,07,19,09,46,18.40
2008,07,19,09,47,18.50
2008,07,19,09,48,18.40
2008,07,19,09,49,18.40
2008,07,19,09,50,18.30
2008,07,19,09,51,18.30
2008,07,19,09,52,18.30
2008,07,19,09,53,18.40
2008,07,19,09,54,18.50
2008,07,19,09,55,18.50
2008,07,19,09,56,18.60
2008,07,19,09,57,18.80
2008,07,19,09,58,18.90
2008,07,19,09,59,19.00
2008,07,19,10,00,18.90
2008,07,19,10,01,18.80
2008,07,19,10,02,18.80
2008,07,19,10,03,18.70
2008,07,19,10,04,18.60
2008,07,19,10,05,18.60
2008,07,19,10,06,18.60
2008,07,19,10,07,18.70
2008,07,19,10,08,18.70
2008,07,19,10,09,18.80
2008,07,19,10,10,18.70
2008,07,19,10,11,18.60
2008,07,19,10,12,18.40
2008,07,19,10,13,18.40
2008,07,19,10,14,18.50
2008,07,19,10,15,18.60
2008,07,19,10,16,18.70
2008,07,19,10,17,18.70
2008,07,19,10,18,18.70
2008,07,19,10,19,18.70
2008,07,19,10,20,18.70
2008,07,19,10,21,18.60
2008,07,19,10,22,18.70
2008,07,19,10,23,18.70
2008,07,19,10,24,18.80
2008,07,19,10,25,18.80
2008,07,19,10,26,18.90
2008,07,19,10,27,19.00
2008,07,19,10,28,19.10
2008,07,19,10,29,19.20
2008,07,19,10,30,19.30
2008,07,19,10,31,19.50
2008,07,19,10,32,19.60
2008,07,19,10,33,19.80
2008,07,19,10,34,19.90
2008,07,19,10,35,20.00
2008,07,19,10,36,20.00
2008,07,19,10,37,20.00
2008,07,19,10,38,19.90
2008,07,19,10,39,19.90
2008,07,19,10,40,19.80
2008,07,19,10,41,19.90
2008,07,19,10,42,19.90
2008,07,19,10,43,19.90
2008,07,19,10,44,19.80
2008,07,19,10,45,19.70
2008,07,19,10,46,19.60
2008,07,19,10,47,19.60
2008,07,19,10,48,19.60
2008,07,19,10,49,19.60
2008,07,19,10,50,19.70
2008,07,19,10,51,19.80
2008,07,19,10,52,19.80
2008,07,19,10,53,19.90
2008,07,19,10,54,19.80
2008,07,19,10,55,19.80
2008,07,19,10,56,19.80
2008,07,19,10,57,19.80
2008,07,19,10,58,19.80
2008,07,19,10,59,19.80
2008,07,19,11,00,19.90
2008,07,19,11,01,19.90
2008,07,19,11,02,19.80
2008,07,19,11,03,19.70
2008,07,19,11,04,19.60
2008,07,19,11,05,19.50
2008,07,19,11,06,19.50
2008,07,19,11,07,19.50
2008,07,19,11,08,19.60
2008,07,19,11,09,19.60
2008,07,19,11,10,19.60
2008,07,19,11,11,19.60
2008,07,19,11,12,19.70
2008,07,19,11,13,19.60
2008,07,19,11,14,19.60
2008,07,19,11,15,19.60
2008,07,19,11,16,19.70
2008,07,19,11,17,19.80
2008,07,19,11,18,19.80
2008,07,19,11,19,19.80
2008,07,19,11,20,19.70
2008,07,19,11,21,19.70
2008,07,19,11,22,19.60
2008,07,19,11,23,19.50
2008,07,19,11,24,19.50
2008,07,19,11,25,19.50
2008,07,19,11,26,19.40
2008,07,19,11,27,19.40
2008,07,19,11,28,19.30
2008,07,19,11,29,19.30
2008,07,19,11,30,19.20
2008,07,19,11,31,19.10
2008,07,19,11,32,19.00
2008,07,19,11,33,18.90
2008,07,19,11,34,18.90
2008,07,19,11,35,18.90
2008,07,19,11,36,18.90
2008,07,19,11,37,18.90
2008,07,19,11,38,18.90
2008,07,19,11,39,19.00
2008,07,19,11,40,19.00
2008,07,19,11,41,18.90
2008,07,19,11,42,18.90
2008,07,19,11,43,18.90
2008,07,19,11,44,18.90
2008,07,19,11,45,18.90
2008,07,19,11,46,18.90
2008,07,19,11,47,19.00
2008,07,19,11,48,19.00
2008,07,19,11,49,19.00
2008,07,19,11,50,19.10
2008,07,19,11,51,19.10
2008,07,19,11,52,19.10
2008,07,19,11,53,19.20
2008,07,19,11,54,19.30
2008,07,19,11,55,19.40
2008,07,19,11,56,19.40
2008,07,19,11,57,19.50
2008,07,19,11,58,19.60
2008,07,19,11,59,19.70
2008,07,19,12,00,19.80
2008,07,19,12,01,19.90
2008,07,19,12,02,20.00
2008,07,19,12,03,20.10
2008,07,19,12,04,20.20
2008,07,19,12,05,20.30
2008,07,19,12,06,20.40
2008,07,19,12,07,20.40
2008,07,19,12,08,20.40
2008,07,19,12,09,20.40
2008,07,19,12,10,20.30
2008,07,19,12,11,20.30
2008,07,19,12,12,20.30
2008,07,19,12,13,20.30
2008,07,19,12,14,20.20
2008,07,19,12,15,20.00
2008,07,19,12,16,19.90
2008,07,19,12,17,20.00
2008,07,19,12,18,20.00
2008,07,19,12,19,20.10
2008,07,19,12,20,20.10
2008,07,19,12,21,20.00
2008,07,19,12,22,20.00
2008,07,19,12,23,20.00
2008,07,19,12,24,20.00
2008,07,19,12,25,20.20
2008,07,19,12,26,20.20
2008,07,19,12,27,20.10
2008,07,19,12,28,20.00
2008,07,19,12,29,20.00
2008,07,19,12,30,20.00
2008,07,19,12,31,19.90
2008,07,19,12,32,20.00
2008,07,19,12,33,20.10
2008,07,19,12,34,20.20
2008,07,19,12,35,20.10
2008,07,19,12,36,20.10
2008,07,19,12,37,20.00
2008,07,19,12,38,20.00
2008,07,19,12,39,20.00
2008,07,19,12,40,20.10
2008,07,19,12,41,20.30
2008,07,19,12,42,20.40
2008,07,19,12,43,20.50
2008,07,19,12,44,20.60
2008,07,19,12,45,20.60
2008,07,19,12,46,20.70
2008,07,19,12,47,20.70
2008,07,19,12,48,20.60
2008,07,19,12,49,20.60
2008,07,19,12,50,20.60
2008,07,19,12,51,20.60
2008,07,19,12,52,20.70
2008,07,19,12,53,20.70
2008,07,19,12,54,20.80
2008,07,19,12,55,20.80
2008,07,19,12,56,20.90
2008,07,19,12,57,20.90
2008,07,19,12,58,20.90
2008,07,19,12,59,20.80
2008,07,19,13,00,20.80
2008,07,19,13,01,20.80
2008,07,19,13,02,20.80
2008,07,19,13,03,20.80
2008,07,19,13,04,20.80
2008,07,19,13,05,20.80
2008,07,19,13,06,20.90
2008,07,19,13,07,20.90
2008,07,19,13,08,21.00
2008,07,19,13,09,20.80
2008,07,19,13,10,20.60
2008,07,19,13,11,20.60
2008,07,19,13,12,20.60
2008,07,19,13,13,20.60
2008,07,19,13,14,20.50
2008,07,19,13,15,20.50
2008,07,19,13,16,20.60
2008,07,19,13,17,20.60
2008,07,19,13,18,20.60
2008,07,19,13,19,20.60
2008,07,19,13,20,20.50
2008,07,19,13,21,20.30
2008,07,19,13,22,20.20
2008,07,19,13,23,20.20
2008,07,19,13,24,20.10
2008,07,19,13,25,20.10
2008,07,19,13,26,20.10
2008,07,19,13,27,20.10
2008,07,19,13,28,20.20
2008,07,19,13,29,20.20
2008,07,19,13,30,20.20
2008,07,19,13,31,20.20
2008,07,19,13,32,20.30
2008,07,19,13,33,20.30
2008,07,19,13,34,20.40
2008,07,19,13,35,20.50
2008,07,19,13,36,20.70
2008,07,19,13,37,20.80
2008,07,19,13,38,20.90
2008,07,19,13,39,21.00
2008,07,19,13,40,21.00
2008,07,19,13,41,20.80
2008,07,19,13,42,20.70
2008,07,19,13,43,20.50
2008,07,19,13,44,20.50
2008,07,19,13,45,20.50
2008,07,19,13,46,20.50
2008,07,19,13,47,20.60
2008,07,19,13,48,20.60
2008,07,19,13,49,20.70
2008,07,19,13,50,20.80
2008,07,19,13,51,20.90
2008,07,19,13,52,20.90
2008,07,19,13,53,21.00
2008,07,19,13,54,21.10
2008,07,19,13,55,21.30
2008,07,19,13,56,21.50
2008,07,19,13,57,21.60
2008,07,19,13,58,21.70
2008,07,19,13,59,21.80
2008,07,19,14,00,21.90
2008,07,19,14,01,22.00
2008,07,19,14,02,21.90
2008,07,19,14,03,21.60
2008,07,19,14,04,21.50
2008,07,19,14,05,21.30
2008,07,19,14,06,21.30
2008,07,19,14,07,21.30
2008,07,19,14,08,21.30
2008,07,19,14,09,21.40
2008,07,19,14,10,21.50
2008,07,19,14,11,21.50
2008,07,19,14,12,21.70
2008,07,19,14,13,21.80
2008,07,19,14,14,21.90
2008,07,19,14,15,22.10
2008,07,19,14,16,22.00
2008,07,19,14,17,21.90
2008,07,19,14,18,21.90
2008,07,19,14,19,21.80
2008,07,19,14,20,21.70
2008,07,19,14,21,21.70
2008,07,19,14,22,21.70
2008,07,19,14,23,21.70
2008,07,19,14,24,21.70
2008,07,19,14,25,21.60
2008,07,19,14,26,21.50
2008,07,19,14,27,21.50
2008,07,19,14,28,21.60
2008,07,19,14,29,21.70
2008,07,19,14,30,21.70
2008,07,19,14,31,21.70
2008,07,19,14,32,21.70
2008,07,19,14,33,21.50
2008,07,19,14,34,21.30
2008,07,19,14,35,21.10
2008,07,19,14,36,20.90
2008,07,19,14,37,20.70
2008,07,19,14,38,20.70
2008,07,19,14,39,20.80
2008,07,19,14,40,20.90
2008,07,19,14,41,21.00
2008,07,19,14,42,21.20
2008,07,19,14,43,21.30
2008,07,19,14,44,21.30
2008,07,19,14,45,21.30
2008,07,19,14,46,21.40
2008,07,19,14,47,21.40
2008,07,19,14,48,21.40
2008,07,19,14,49,21.40
2008,07,19,14,50,21.50
2008,07,19,14,51,21.50
2008,07,19,14,52,21.40
2008,07,19,14,53,21.40
2008,07,19,14,54,21.30
2008,07,19,14,55,21.30
2008,07,19,14,56,21.30
2008,07,19,14,57,21.40
2008,07,19,14,58,21.40
2008,07,19,14,59,21.30
2008,07,19,15,00,21.40
2008,07,19,15,01,21.40
2008,07,19,15,02,21.50
2008,07,19,15,03,21.50
2008,07,19,15,04,21.60
2008,07,19,15,05,21.60
2008,07,19,15,06,21.50
2008,07,19,15,07,21.40
2008,07,19,15,08,21.30
2008,07,19,15,09,21.30
2008,07,19,15,10,21.30
2008,07,19,15,11,21.30
2008,07,19,15,12,21.40
2008,07,19,15,13,21.50
2008,07,19,15,14,21.60
2008,07,19,15,15,21.60
2008,07,19,15,16,21.70
2008,07,19,15,17,21.70
2008,07,19,15,18,21.80
2008,07,19,15,19,21.90
2008,07,19,15,20,21.90
2008,07,19,15,21,21.90
2008,07,19,15,22,21.90
2008,07,19,15,23,21.80
2008,07,19,15,24,21.80
2008,07,19,15,25,21.80
2008,07,19,15,26,21.70
2008,07,19,15,27,21.80
2008,07,19,15,28,21.80
2008,07,19,15,29,21.80
2008,07,19,15,30,21.70
2008,07,19,15,31,21.60
2008,07,19,15,32,21.50
2008,07,19,15,33,21.40
2008,07,19,15,34,21.40
2008,07,19,15,35,21.40
2008,07,19,15,36,21.50
2008,07,19,15,37,21.60
2008,07,19,15,38,21.70
2008,07,19,15,39,21.80
2008,07,19,15,40,21.80
2008,07,19,15,41,21.90
2008,07,19,15,42,21.90
2008,07,19,15,43,21.80
2008,07,19,15,44,21.60
2008,07,19,15,45,21.40
2008,07,19,15,46,21.40
2008,07,19,15,47,21.40
2008,07,19,15,48,21.30
2008,07,19,15,49,21.30
2008,07,19,15,50,21.30
2008,07,19,15,51,21.30
2008,07,19,15,52,21.40
2008,07,19,15,53,21.40
2008,07,19,15,54,21.50
2008,07,19,15,55,21.40
2008,07,19,15,56,21.40
2008,07,19,15,57,21.30
2008,07,19,15,58,21.30
2008,07,19,15,59,21.30
2008,07,19,16,00,21.30
2008,07,19,16,01,21.40
2008,07,19,16,02,21.40
2008,07,19,16,03,21.40
2008,07,19,16,04,21.30
2008,07,19,16,05,21.30
2008,07,19,16,06,21.30
2008,07,19,16,07,21.30
2008,07,19,16,08,21.30
2008,07,19,16,09,21.40
2008,07,19,16,10,21.50
2008,07,19,16,11,21.50
2008,07,19,16,12,21.60
2008,07,19,16,13,21.50
2008,07,19,16,14,21.50
2008,07,19,16,15,21.40
2008,07,19,16,16,21.30
2008,07,19,16,17,21.20
2008,07,19,16,18,21.10
2008,07,19,16,19,20.90
2008,07,19,16,20,20.80
2008,07,19,16,21,20.80
2008,07,19,16,22,20.70
2008,07,19,16,23,20.60
2008,07,19,16,24,20.60
2008,07,19,16,25,20.60
2008,07,19,16,26,20.60
2008,07,19,16,27,20.70
2008,07,19,16,28,20.80
2008,07,19,16,29,20.80
2008,07,19,16,30,20.90
2008,07,19,16,31,21.00
2008,07,19,16,32,21.00
2008,07,19,16,33,20.90
2008,07,19,16,34,20.90
2008,07,19,16,35,20.90
2008,07,19,16,36,20.80
2008,07,19,16,37,20.80
2008,07,19,16,38,20.70
2008,07,19,16,39,20.70
2008,07,19,16,40,20.70
2008,07,19,16,41,20.80
2008,07,19,16,42,20.80
2008,07,19,16,43,20.80
2008,07,19,16,44,20.80
2008,07,19,16,45,20.80
2008,07,19,16,46,20.90
2008,07,19,16,47,20.90
2008,07,19,16,48,20.90
2008,07,19,16,49,20.90
2008,07,19,16,50,20.90
2008,07,19,16,51,20.90
2008,07,19,16,52,20.90
2008,07,19,16,53,20.90
2008,07,19,16,54,21.00
2008,07,19,16,55,21.00
2008,07,19,16,56,21.10
2008,07,19,16,57,21.10
2008,07,19,16,58,21.20
2008,07,19,16,59,21.20
2008,07,19,17,00,21.20
2008,07,19,17,01,21.20
2008,07,19,17,02,21.30
2008,07,19,17,03,21.30
2008,07,19,17,04,21.20
2008,07,19,17,05,21.20
2008,07,19,17,06,21.20
2008,07,19,17,07,21.30
2008,07,19,17,08,21.30
2008,07,19,17,09,21.30
2008,07,19,17,10,21.30
2008,07,19,17,11,21.40
2008,07,19,17,12,21.40
2008,07,19,17,13,21.40
2008,07,19,17,14,21.50
2008,07,19,17,15,21.50
2008,07,19,17,16,21.50
2008,07,19,17,17,21.50
2008,07,19,17,18,21.50
2008,07,19,17,19,21.50
2008,07,19,17,20,21.50
2008,07,19,17,21,21.40
2008,07,19,17,22,21.40
2008,07,19,17,23,21.40
2008,07,19,17,24,21.40
2008,07,19,17,25,21.40
2008,07,19,17,26,21.40
2008,07,19,17,27,21.40
2008,07,19,17,28,21.30
2008,07,19,17,29,21.30
2008,07,19,17,30,21.30
2008,07,19,17,31,21.20
2008,07,19,17,32,21.20
2008,07,19,17,33,21.20
2008,07,19,17,34,21.20
2008,07,19,17,35,21.20
2008,07,19,17,36,21.20